Hourly Weather Roundup
Issued by NWS Central Illinois

Home | Current Version | Previous Version | Text Only | Print | Product List | Glossary On
Versions: 1 2 3 4 5 6 7 8 9 10 11 12 13 14 15 16 17 18 19 20 21 22 23 24 25 26 27 28 29 30 31 32 33 34 35 36 37 38 39 40 41 42 43 44 45 46 47 48 49 50
820
NZUS43 KILX 312010
HWRILX

AREA WEATHER ROUNDUP
NATIONAL WEATHER SERVICE, LINCOLN IL
300 PM CDT TUE MAY 31 2016


CITY           SKY/WX    TMP DP  RH WIND       PRES   REMARKS
BLOOMINGTON    CLOUDY    76  63  64 W5        29.97F
CHAMPAIGN      MOSUNNY   84  61  45 W9        29.94F HX  84
DANVILLE       SUNNY     88  53  30 S16       29.92F HX  85
DECATUR        CLOUDY    83  64  52 VRB5      29.94F HX  84
EFFINGHAM      LGT RAIN  76  69  79 W7        29.96S
FLORA          PTSUNNY   86  60  40 S10       29.94S HX  86
GALESBURG      CLOUDY    79  61  53 S8        29.93F HX  80
JACKSONVILLE   PTSUNNY   83  58  42 S9        29.93F HX  83
LACON          CLOUDY    71  65  81 CALM      29.95F
LAWRENCEVILLE  MOSUNNY   89  55  31 S9G21     29.93F HX  87
LITCHFIELD     CLOUDY    77  64  62 SE6       29.96S
$$


CITY           SKY/WX    TMP DP  RH WIND       PRES   REMARKS
LINCOLN        CLOUDY    76  65  68 CALM      29.94F
MACOMB         MOSUNNY   82  60  47 S10G16    29.95F HX  82
MATTOON        MOSUNNY   84  55  36 S13       29.94S HX  83
MT CARMEL AP   PTSUNNY   86  54  32 SE10      29.93F HX  84
OLNEY-NOBLE AP CLOUDY    84  55  37 S12       29.94F HX  83
PARIS          MOSUNNY   87  58  38 S9        29.95F HX  86
PEORIA         CLOUDY    76  59  55 S6        29.94F
PONTIAC        CLOUDY    77  65  65 W20       29.97R
RANTOUL        PTSUNNY   87  60  39 W12G18    29.93F HX  87
ROBINSON       SUNNY     85  60  43 S13       29.94F HX  85
SPRINGFIELD    CLOUDY    78  65  63 SW6       29.95S HX  80
TAYLORVILLE    MOSUNNY   80  66  61 W10       29.94F HX  82
$$

...REGIONAL REPORTS...


CITY           SKY/WX    TMP DP  RH WIND       PRES   REMARKS
CHICAGO O`HARE CLOUDY    79  61  53 NW16      29.96S HX  80
KANKAKEE       CLOUDY    80  58  47 SW25      29.96R HX  80
MOLINE         CLOUDY    81  58  45 S7        29.92F HX  81
MOUNT STERLING CLOUDY    79  62  55 S8        29.93F HX  81
MOUNT VERNON   CLOUDY    79  63  57 W6        29.95R HX  80
PITTSFIELD     CLOUDY    80  63  55 S8        29.94F HX  81
QUINCY         PTSUNNY   80  61  52 S9        29.92F HX  81
ROCKFORD       LGT RAIN  66  62  87 E8        30.03F
$$


CITY           SKY/WX    TMP DP  RH WIND       PRES   REMARKS
BURLINGTON     PTSUNNY   80  61  52 S9        29.91F HX  81
CEDAR RAPIDS   CLOUDY    76  63  64 S10       29.90F
DES MOINES     CLOUDY    81  62  52 S13G21    29.86F HX  82
KIRKSVILLE     CLOUDY    80  63  55 S14       29.92F HX  81
OTTUMWA        CLOUDY    78  60  53 S14       29.90
ST LOUIS       MOSUNNY   84  63  49 S10G18    29.93F HX  85
$$


CITY           SKY/WX    TMP DP  RH WIND       PRES   REMARKS
TERRE HAUTE    MOSUNNY   88  55  32 S13G18    29.94F HX  86
EVANSVILLE     CLOUDY    86  59  39 S8        29.94F HX  85
INDIANAPOLIS   MOSUNNY   86  59  39 SE13G20   29.95F HX  85
LAFAYETTE      CLOUDY    87  56  34 W9        29.93F HX  85
MADISON        LGT RAIN  67  61  81 SE10      29.98F
MILWAUKEE      CLOUDY    68  56  65 N7        30.02R
$$






USA.gov is the U.S. government's official web portal to all federal, state and local government web resources and services.